[[{"header":{"parameterUnit":"m.s-1","parameterCategory":1,"la1":30.2991,"la2":30.254,"lo1":-89.0895,"lo2":-89.0444,"dy":0.0017,"dx":0.0017,"nx":28,"ny":28,"refTime":"2025-08-28T03:00:00:Z","depth":0,"parameterNumber":2,"parameterNumberName":"U-component_of_WINDS"},"data":[0,0,0,0,0,0,0,0,0,0,0,0,0,0,0,0,0,0,0,0,0,0,0,0,0,0,0,0,0,0,0,0,0,0,0,0,0,0,0,0,0,0,0,0,0,0,0,0,0,0,0,0,0,0,0,0,0,0,-0.4599,-0.4599,0,-0.4522,-0.4521,-0.452,-0.4467,-0.4467,-0.4467,-0.4466,-0.4387,-0.4386,-0.4384,0,0,0,0,0,0,0,0,0,0,0,0,0,-0.4703,-0.4701,-0.46,-0.4599,-0.4598,-0.4522,-0.4521,-0.452,-0.4467,-0.4467,-0.4466,-0.4466,-0.4388,-0.4386,-0.4384,0,0,0,0,0,0,0,0,0,0,0,0,0,-0.4645,-0.4701,-0.46,-0.4562,-0.4558,-0.4522,-0.4521,-0.452,-0.4468,-0.4467,-0.4466,-0.4466,-0.4389,-0.4386,-0.4383,-0.4379,0,0,-0.4376,-0.4374,0,0,0,0,0,0,0,0,-0.4648,-0.4641,-0.4569,-0.4565,-0.456,-0.4504,-0.4529,-0.4473,-0.4468,-0.4502,-0.4466,-0.4466,-0.4427,-0.4421,-0.4408,-0.4375,-0.4372,-0.4375,-0.4374,-0.4373,-0.4372,0,0,0,0,0,0,0,-0.4652,-0.4644,-0.4569,-0.4568,-0.4562,-0.455,-0.4541,-0.4518,-0.4468,-0.4499,-0.4495,-0.4486,-0.4424,-0.441,-0.4405,-0.4371,-0.4375,-0.4373,-0.4371,-0.437,-0.4332,-0.4333,0,0,0,0,0,0,-0.4662,-0.4648,-0.4571,-0.4566,-0.4604,-0.4548,-0.4538,-0.4522,-0.4469,-0.446,-0.4487,-0.4484,-0.4415,-0.4408,-0.4402,-0.4394,-0.4373,-0.437,-0.4369,-0.4332,-0.4332,-0.4333,0,0,0,0,0,0,-0.4665,-0.4656,-0.4574,-0.4606,-0.4595,-0.4547,-0.453,-0.4521,-0.4507,-0.446,-0.4451,-0.4482,-0.4414,-0.4406,-0.4385,-0.4391,-0.4369,-0.4367,-0.4331,-0.4332,-0.4333,-0.4378,0,0,0,0,0,0,-0.4668,-0.4657,-0.4655,-0.4606,-0.4593,-0.4559,-0.453,-0.452,-0.4503,-0.4498,-0.4452,-0.4444,-0.4413,-0.439,-0.4383,-0.4387,-0.4365,-0.433,-0.4331,-0.4332,-0.4376,-0.438,-0.4384,0,0,0,0,0,-0.4672,-0.467,-0.4655,-0.4646,-0.4589,-0.4559,-0.4552,-0.4516,-0.4503,-0.4501,-0.447,-0.4446,-0.4391,-0.4388,-0.438,-0.4383,-0.433,-0.4331,-0.4332,-0.4374,-0.4379,-0.4384,0,0,0,0,0,0,-0.4721,-0.4663,-0.4645,-0.4628,-0.4599,-0.455,-0.4546,-0.4523,-0.4496,-0.4493,-0.445,-0.444,-0.4424,-0.4401,-0.4399,-0.4377,-0.4358,-0.4357,-0.4392,-0.4397,-0.4401,-0.4407,-0.4362,0,0,0,0,0,-0.4729,-0.4709,-0.466,-0.465,-0.4636,-0.4594,-0.4579,-0.4554,-0.4522,-0.451,-0.4477,-0.4448,-0.4424,-0.4409,-0.4384,-0.4372,-0.4362,-0.4371,-0.4375,-0.4378,-0.4379,-0.4372,-0.4375,-0.4337,-0.4337,-0.4337,0,0,-0.4747,-0.4714,-0.4704,-0.4659,-0.4633,-0.4614,-0.4584,-0.4564,-0.455,-0.4507,-0.4485,-0.4461,-0.4425,-0.4409,-0.44,-0.4389,-0.4387,-0.438,-0.4383,-0.4382,-0.4373,-0.4377,-0.438,-0.4338,-0.4338,-0.4337,0,0,-0.477,-0.4742,-0.4731,-0.4706,-0.4668,-0.4639,-0.4637,-0.4592,-0.4574,-0.4552,-0.4519,-0.4502,-0.4461,-0.4437,-0.4419,-0.4434,-0.4411,-0.4427,-0.4449,-0.4443,-0.4446,-0.4448,-0.4454,-0.4457,-0.4428,-0.4428,-0.4428,0,-0.4798,-0.4767,-0.4729,-0.4711,-0.4693,-0.4653,-0.4642,-0.462,-0.4575,-0.4564,-0.4552,-0.4502,-0.4474,-0.4452,-0.4456,-0.4443,-0.4439,-0.4433,-0.4448,-0.4451,-0.4452,-0.4458,-0.446,-0.443,-0.443,-0.443,-0.4429,0,-0.4803,-0.4782,-0.4778,-0.4736,-0.4717,-0.4703,-0.4663,-0.4649,-0.4626,-0.4599,-0.4578,-0.4544,-0.4512,-0.4505,-0.4482,-0.448,-0.4475,-0.4457,-0.4437,-0.4459,-0.4463,-0.4465,-0.4434,-0.4433,-0.4432,-0.4431,0,0,-0.4855,-0.4792,-0.4791,-0.4772,-0.4727,-0.4711,-0.4695,-0.4664,-0.4653,-0.4624,-0.461,-0.4577,-0.456,-0.4541,-0.4515,-0.4509,-0.4524,-0.4491,-0.449,-0.4499,-0.4521,-0.4536,-0.4539,-0.4508,-0.4508,-0.4508,-0.4524,0,-0.4872,-0.4841,-0.4807,-0.4789,-0.477,-0.4732,-0.4718,-0.4689,-0.4664,-0.4645,-0.4616,-0.4594,-0.4573,-0.4561,-0.4553,-0.4524,-0.4528,-0.4522,-0.4496,-0.4495,-0.4507,-0.4541,-0.4556,-0.4573,-0.4526,-0.4526,-0.4526,0,-0.4887,-0.486,-0.4841,-0.4798,-0.4788,-0.4777,-0.4746,-0.4728,-0.4694,-0.4676,-0.4655,-0.4627,-0.4609,-0.4592,-0.4567,-0.4564,-0.4551,-0.4535,-0.4535,-0.4531,-0.4513,-0.4539,-0.4577,-0.458,-0.4528,-0.4528,-0.4528,0,-0.4929,-0.4887,-0.487,-0.4855,-0.4804,-0.4797,-0.4776,-0.4742,-0.4726,-0.4699,-0.4688,-0.4659,-0.4644,-0.4623,-0.4588,-0.4578,-0.4568,-0.4547,-0.4553,-0.4554,-0.4553,-0.4554,-0.459,-0.4544,-0.4544,-0.4544,-0.4544,0,-0.4952,-0.4941,-0.4888,-0.4878,-0.4865,-0.4825,-0.4814,-0.4789,-0.476,-0.4744,-0.4709,-0.4696,-0.4651,-0.4632,-0.4605,-0.4589,-0.4582,-0.4568,-0.4561,-0.4572,-0.4574,-0.4563,-0.4561,-0.4544,-0.4544,-0.4544,-0.4544,0,-0.4996,-0.4959,-0.4938,-0.4892,-0.488,-0.4873,-0.4834,-0.4823,-0.4795,-0.4777,-0.477,-0.4727,-0.4703,-0.4667,-0.4632,-0.4614,-0.4603,-0.4591,-0.4615,-0.4611,-0.4619,-0.4619,-0.4651,-0.4653,-0.4605,-0.4605,-0.4606,0,-0.5013,-0.5005,-0.4957,-0.4944,-0.4924,-0.4904,-0.4887,-0.4848,-0.4832,-0.4794,-0.4788,-0.4761,-0.4738,-0.4702,-0.4668,-0.4641,-0.4629,-0.4642,-0.4625,-0.4636,-0.463,-0.4632,-0.4631,-0.4646,-0.4647,-0.4647,-0.4648,0,-0.5049,-0.5031,-0.5009,-0.498,-0.4961,-0.4936,-0.491,-0.4901,-0.4856,-0.484,-0.4816,-0.4798,-0.4762,-0.4737,-0.4706,-0.4684,-0.4659,-0.4654,-0.4654,-0.4665,-0.4679,-0.4672,-0.4626,-0.4653,-0.4653,-0.4652,-0.4652,-0.4652,-0.5081,-0.5072,-0.5037,-0.5013,-0.4989,-0.4965,-0.4953,-0.4924,-0.4903,-0.4871,-0.4849,-0.4826,-0.4793,-0.4749,-0.4728,-0.471,-0.4699,-0.4699,-0.4699,-0.47,-0.4705,-0.4681,-0.4704,-0.4704,-0.4704,-0.4703,-0.4703,0,-0.5116,-0.5092,-0.507,-0.5034,-0.5015,-0.4993,-0.4963,-0.4949,-0.4929,-0.49,-0.4878,-0.485,-0.4825,-0.479,-0.4762,-0.4754,-0.4742,-0.4749,-0.4749,-0.4745,-0.4715,-0.4718,-0.4759,-0.4759,-0.4759,-0.4759,-0.4759,-0.4759,-0.5132,-0.5115,-0.5093,-0.5065,-0.5041,-0.5017,-0.5002,-0.4981,-0.4958,-0.4928,-0.4907,-0.4884,-0.4853,-0.4823,-0.4799,-0.479,-0.4782,-0.4792,-0.4779,-0.4752,-0.4747,-0.4742,-0.4745,-0.479,-0.479,-0.481,-0.481,-0.481]},{"header":{"parameterUnit":"m.s-1","parameterCategory":1,"la1":30.2991,"la2":30.254,"lo1":-89.0895,"lo2":-89.0444,"dy":0.0017,"dx":0.0017,"nx":28,"ny":28,"refTime":"2025-08-28T03:00:00:Z","depth":0,"parameterNumber":3,"parameterNumberName":"V-component_of_WINDS"},"data":[0,0,0,0,0,0,0,0,0,0,0,0,0,0,0,0,0,0,0,0,0,0,0,0,0,0,0,0,0,0,0,0,0,0,0,0,0,0,0,0,0,0,0,0,0,0,0,0,0,0,0,0,0,0,0,0,0,0,3.8914,3.8914,0,3.8857,3.8856,3.8856,3.8794,3.8793,3.8792,3.8791,3.8729,3.8729,3.8728,0,0,0,0,0,0,0,0,0,0,0,0,0,3.8969,3.8968,3.8915,3.8914,3.8913,3.8857,3.8856,3.8855,3.8794,3.8793,3.8792,3.8791,3.873,3.8729,3.8728,0,0,0,0,0,0,0,0,0,0,0,0,0,3.8932,3.8968,3.8915,3.8876,3.8872,3.8857,3.8856,3.8855,3.8794,3.8793,3.8792,3.8791,3.873,3.8729,3.8728,3.8746,0,0,3.8724,3.8723,0,0,0,0,0,0,0,0,3.8934,3.893,3.8882,3.8878,3.8874,3.8831,3.8852,3.8818,3.8795,3.8824,3.8791,3.879,3.8764,3.876,3.8752,3.8743,3.874,3.8724,3.8723,3.8722,3.8722,0,0,0,0,0,0,0,3.8936,3.8932,3.8892,3.8882,3.8877,3.886,3.8854,3.8846,3.8802,3.8821,3.8816,3.8811,3.8762,3.8753,3.875,3.8739,3.8724,3.8722,3.8722,3.8721,3.874,3.8742,0,0,0,0,0,0,3.8945,3.8934,3.8893,3.889,3.8901,3.886,3.8853,3.8846,3.8802,3.8794,3.8812,3.8808,3.8756,3.8752,3.8748,3.8765,3.8722,3.8721,3.872,3.8739,3.8741,3.8742,0,0,0,0,0,0,3.8947,3.8942,3.8896,3.8911,3.8904,3.8861,3.8854,3.8846,3.8837,3.8795,3.8786,3.8812,3.8755,3.8749,3.8746,3.8762,3.872,3.8719,3.8738,3.874,3.8741,3.88,0,0,0,0,0,0,3.8948,3.8943,3.895,3.8911,3.8903,3.8897,3.8855,3.8846,3.8836,3.883,3.8792,3.8785,3.8753,3.8749,3.8745,3.8759,3.8718,3.8736,3.8738,3.8741,3.8796,3.8804,3.881,0,0,0,0,0,3.8951,3.8968,3.8951,3.8946,3.8911,3.8898,3.8893,3.8857,3.8837,3.8843,3.8816,3.8786,3.8761,3.8749,3.8744,3.8758,3.8735,3.8738,3.874,3.8793,3.8802,3.881,0,0,0,0,0,0,3.9009,3.8963,3.8943,3.8949,3.8928,3.8887,3.8894,3.8868,3.8851,3.8847,3.8803,3.8794,3.8796,3.8777,3.8765,3.8773,3.8744,3.8746,3.8785,3.8793,3.88,3.8804,3.8717,0,0,0,0,0,3.9023,3.9017,3.8976,3.8985,3.8976,3.8937,3.893,3.8905,3.888,3.8871,3.8843,3.882,3.8807,3.8799,3.8785,3.8794,3.8784,3.8801,3.8808,3.8813,3.8815,3.8817,3.8824,3.8751,3.8751,3.8751,0,0,3.9051,3.9025,3.9023,3.8996,3.8977,3.8971,3.893,3.8925,3.8919,3.887,3.8865,3.8844,3.8816,3.8819,3.8818,3.8802,3.8833,3.8817,3.8822,3.8821,3.8821,3.8828,3.8834,3.8753,3.8753,3.8753,0,0,3.9098,3.9078,3.9083,3.9065,3.9037,3.9011,3.9013,3.8976,3.8961,3.8956,3.8918,3.8911,3.8889,3.887,3.8858,3.8898,3.8869,3.8895,3.8929,3.8932,3.8937,3.8942,3.8955,3.8961,3.8897,3.8897,3.8897,0,3.9136,3.9125,3.9089,3.9086,3.9075,3.9032,3.9036,3.9019,3.8988,3.898,3.8964,3.8936,3.8913,3.891,3.8921,3.8912,3.8911,3.8898,3.894,3.8944,3.8948,3.896,3.8965,3.89,3.89,3.89,3.8899,0,3.9173,3.9166,3.9174,3.9145,3.9135,3.9136,3.9098,3.9092,3.9068,3.9044,3.9039,3.9011,3.8989,3.8987,3.8963,3.8981,3.8972,3.8948,3.8917,3.8959,3.8969,3.8974,3.8905,3.8904,3.8903,3.8902,0,0,3.9254,3.9206,3.9209,3.9195,3.9161,3.9155,3.9153,3.9134,3.9129,3.9108,3.9105,3.9088,3.9066,3.9052,3.9025,3.9028,3.9061,3.9004,3.9002,3.9014,3.9077,3.9094,3.91,3.9042,3.9043,3.9043,3.9079,0,3.9294,3.929,3.9257,3.9262,3.9254,3.9213,3.9212,3.919,3.9167,3.9157,3.9132,3.912,3.9092,3.9083,3.9084,3.9057,3.9072,3.9054,3.9037,3.9037,3.9044,3.9105,3.9124,3.9158,3.9083,3.9083,3.9084,0,3.934,3.9324,3.9328,3.9294,3.9289,3.9289,3.9268,3.9259,3.9233,3.9216,3.9201,3.9172,3.9167,3.9139,3.9131,3.9119,3.911,3.9096,3.9096,3.9092,3.9062,3.9102,3.9169,3.9173,3.909,3.909,3.9089,0,3.9398,3.9376,3.9376,3.9365,3.9326,3.9326,3.9309,3.9283,3.9273,3.9254,3.9247,3.9228,3.9217,3.9203,3.9168,3.9152,3.9163,3.9133,3.9148,3.9149,3.9151,3.9151,3.9216,3.9148,3.9148,3.9148,3.9148,0,3.9445,3.9449,3.9401,3.94,3.9403,3.9365,3.9369,3.9348,3.9325,3.9318,3.9282,3.9277,3.9232,3.9222,3.9195,3.9191,3.9187,3.9172,3.9165,3.9175,3.9176,3.9167,3.9163,3.9149,3.9149,3.9149,3.9148,0,3.9509,3.9477,3.9473,3.9437,3.9427,3.9431,3.9399,3.9396,3.9372,3.9364,3.936,3.9322,3.9307,3.9272,3.9248,3.923,3.9233,3.922,3.9242,3.9237,3.9253,3.9251,3.9313,3.9319,3.9249,3.925,3.925,0,3.954,3.9542,3.9506,3.95,3.9485,3.9475,3.9465,3.9428,3.9419,3.939,3.9391,3.9374,3.9358,3.9337,3.9306,3.9287,3.9273,3.9296,3.9269,3.9279,3.9271,3.9271,3.927,3.9301,3.9302,3.9303,3.9303,0,3.9599,3.9584,3.9571,3.9553,3.9543,3.9527,3.9508,3.9505,3.9463,3.9455,3.944,3.9428,3.9404,3.9387,3.9364,3.9345,3.9317,3.9312,3.9314,3.9324,3.9336,3.9328,3.9256,3.931,3.931,3.9309,3.9309,3.9309,3.9646,3.9646,3.9621,3.9608,3.959,3.9574,3.957,3.9545,3.9533,3.9511,3.949,3.9478,3.9451,3.9417,3.9401,3.9389,3.9375,3.9378,3.9379,3.938,3.9384,3.9339,3.9385,3.9385,3.9384,3.9384,3.9384,0,3.9702,3.9684,3.9673,3.9649,3.9639,3.9615,3.9593,3.9586,3.9576,3.9554,3.954,3.9523,3.9506,3.9474,3.9455,3.9452,3.9438,3.9448,3.9447,3.9442,3.9398,3.9398,3.9459,3.9459,3.9459,3.9459,3.9459,3.9459,3.973,3.9728,3.971,3.9698,3.9679,3.9668,3.9657,3.9642,3.9624,3.9607,3.9594,3.9574,3.9547,3.9526,3.9509,3.95,3.9494,3.9507,3.9494,3.9453,3.9446,3.9439,3.9438,3.9506,3.9507,3.9538,3.9539,3.9539]}]]